Location: Camps Bay
(33.9517°S, 18.3844°E)
Time: 13:51:17
(UTC+00:00)

H-2A R/B - Pass Details

Date: 18 January 2020
Orbit: 529 x 653 km, 98.3° (Epoch: 16 February)

Event Time Altitude Azimuth Distance (km) Brightness Sun altitude
Exits shadow 03:01:21 - 353° (N) 2,606 5.4 -10.2°
Reaches altitude 10° 03:03:04 10° 345° (NNW) 1,949 4.7 -9.9°
Maximum altitude 03:06:59 36° 278° (W) 993 3.2 -9.2°
Drops below altitude 10° 03:11:05 10° 211° (SSW) 2,040 5.2 -8.5°
Sets 03:13:30 0° 202° (SSW) 2,973 6.2 -8.1°
